[[{"header":{"parameterUnit":"m.s-1","parameterCategory":1,"la1":30.2991,"la2":30.254,"lo1":-89.0895,"lo2":-89.0444,"dy":0.0017,"dx":0.0017,"nx":28,"ny":28,"refTime":"2025-04-05T09:00:00:Z","depth":0,"parameterNumber":2,"parameterNumberName":"U-component_of_WINDS"},"data":[0,0,0,0,0,0,0,0,0,0,0,0,0,0,0,0,0,0,0,0,0,0,0,0,0,0,0,0,0,0,0,0,0,0,0,0,0,0,0,0,0,0,0,0,0,0,0,0,0,0,0,0,0,0,0,0,0,0,-5.1178,-5.118,0,-5.1331,-5.1332,-5.1334,-5.1371,-5.137,-5.1369,-5.1368,-5.1522,-5.1527,-5.1532,0,0,0,0,0,0,0,0,0,0,0,0,0,-5.0919,-5.0923,-5.1178,-5.118,-5.1182,-5.133,-5.1332,-5.1335,-5.1371,-5.137,-5.1368,-5.1367,-5.152,-5.1526,-5.1532,0,0,0,0,0,0,0,0,0,0,0,0,0,-5.1047,-5.0925,-5.1178,-5.1218,-5.1223,-5.133,-5.1333,-5.1335,-5.1371,-5.137,-5.1368,-5.1367,-5.1518,-5.1526,-5.1533,-5.161,0,0,-5.1556,-5.1559,0,0,0,0,0,0,0,0,-5.104,-5.1057,-5.121,-5.1216,-5.1222,-5.133,-5.1298,-5.1427,-5.1372,-5.1315,-5.1368,-5.1366,-5.1459,-5.1472,-5.1503,-5.1617,-5.1624,-5.1557,-5.1561,-5.1565,-5.1567,0,0,0,0,0,0,0,-5.1031,-5.105,-5.1239,-5.1213,-5.1219,-5.1229,-5.1245,-5.1322,-5.1394,-5.132,-5.1323,-5.134,-5.1462,-5.1496,-5.1507,-5.1626,-5.1557,-5.1563,-5.1568,-5.1571,-5.1811,-5.1813,0,0,0,0,0,0,-5.1015,-5.1043,-5.1234,-5.1243,-5.1125,-5.1234,-5.1253,-5.1297,-5.1393,-5.1406,-5.1342,-5.1342,-5.1484,-5.1498,-5.1513,-5.1608,-5.1565,-5.1572,-5.1576,-5.1809,-5.1811,-5.1813,0,0,0,0,0,0,-5.1009,-5.1032,-5.1228,-5.1144,-5.1169,-5.1241,-5.1289,-5.1301,-5.1335,-5.1409,-5.1422,-5.1363,-5.1483,-5.1502,-5.1586,-5.1614,-5.1575,-5.1582,-5.1807,-5.181,-5.1812,-5.1801,0,0,0,0,0,0,-5.1002,-5.103,-5.1059,-5.1144,-5.1174,-5.1298,-5.1291,-5.1305,-5.1348,-5.1349,-5.1433,-5.1445,-5.1483,-5.1574,-5.1593,-5.1624,-5.1588,-5.1805,-5.1808,-5.1812,-5.1799,-5.1803,-5.1806,0,0,0,0,0,-5.0992,-5.105,-5.1061,-5.1084,-5.1213,-5.1299,-5.1316,-5.1359,-5.135,-5.138,-5.1429,-5.1443,-5.1609,-5.1582,-5.1604,-5.1638,-5.1803,-5.1807,-5.1811,-5.1797,-5.1802,-5.1806,0,0,0,0,0,0,-5.0965,-5.1061,-5.1075,-5.1161,-5.1222,-5.1305,-5.1345,-5.1363,-5.1427,-5.1426,-5.1476,-5.1495,-5.1575,-5.1615,-5.1584,-5.1717,-5.1706,-5.1714,-5.1687,-5.1693,-5.1696,-5.1684,-5.1594,0,0,0,0,0,-5.097,-5.1032,-5.1113,-5.1182,-5.1212,-5.1273,-5.1312,-5.1341,-5.1405,-5.1431,-5.1485,-5.1547,-5.1614,-5.1656,-5.1721,-5.1806,-5.1824,-5.184,-5.1843,-5.1846,-5.1852,-5.1899,-5.1907,-5.1827,-5.1827,-5.1827,0,0,-5.0979,-5.1039,-5.1075,-5.1178,-5.1228,-5.1291,-5.1294,-5.1361,-5.1409,-5.1441,-5.1523,-5.1565,-5.1638,-5.1722,-5.1762,-5.1758,-5.1879,-5.1851,-5.1853,-5.1858,-5.1904,-5.1912,-5.1919,-5.183,-5.1829,-5.1829,0,0,-5.1027,-5.1079,-5.1142,-5.1193,-5.1269,-5.131,-5.1326,-5.1407,-5.1436,-5.152,-5.1546,-5.1603,-5.1716,-5.1767,-5.1807,-5.1877,-5.1892,-5.1897,-5.1915,-5.1961,-5.1967,-5.1973,-5.1996,-5.2004,-5.1904,-5.1904,-5.1904,0,-5.1028,-5.1124,-5.1172,-5.1238,-5.1282,-5.1316,-5.1379,-5.1426,-5.152,-5.1549,-5.1544,-5.1687,-5.1739,-5.1835,-5.1852,-5.1885,-5.1903,-5.1886,-5.1962,-5.1969,-5.1975,-5.1997,-5.2006,-5.1904,-5.1904,-5.1904,-5.1904,0,-5.1121,-5.1188,-5.123,-5.132,-5.1369,-5.1433,-5.149,-5.1534,-5.1559,-5.1601,-5.1685,-5.1749,-5.1827,-5.1853,-5.1877,-5.1953,-5.1948,-5.1952,-5.1941,-5.1981,-5.2004,-5.2013,-5.1903,-5.1903,-5.1903,-5.1903,0,0,-5.1154,-5.1271,-5.1285,-5.1326,-5.1414,-5.1467,-5.1533,-5.1611,-5.1647,-5.1712,-5.1768,-5.1864,-5.1869,-5.1915,-5.1946,-5.1986,-5.2036,-5.1985,-5.1988,-5.1991,-5.2122,-5.2116,-5.2126,-5.2048,-5.205,-5.2051,-5.2115,0,-5.1211,-5.133,-5.1376,-5.1473,-5.1535,-5.1569,-5.1627,-5.1687,-5.1729,-5.1788,-5.1833,-5.19,-5.1902,-5.193,-5.1972,-5.2021,-5.2062,-5.2017,-5.2099,-5.2102,-5.2077,-5.2138,-5.2132,-5.2189,-5.2124,-5.2126,-5.2127,0,-5.1293,-5.1359,-5.1462,-5.1543,-5.1571,-5.1622,-5.1697,-5.1753,-5.1823,-5.185,-5.1902,-5.1931,-5.2002,-5.1989,-5.2087,-5.2055,-5.2092,-5.2121,-5.2125,-5.2132,-5.2114,-5.2144,-5.2209,-5.2216,-5.2142,-5.214,-5.2139,0,-5.1304,-5.1419,-5.1495,-5.153,-5.1627,-5.1662,-5.1704,-5.1772,-5.1816,-5.1882,-5.1911,-5.1984,-5.2023,-5.208,-5.2127,-5.2114,-5.2221,-5.2212,-5.2244,-5.2243,-5.2262,-5.226,-5.2331,-5.229,-5.229,-5.229,-5.229,0,-5.1362,-5.1423,-5.1501,-5.1548,-5.1618,-5.1671,-5.1739,-5.1783,-5.1844,-5.19,-5.1935,-5.1987,-5.2048,-5.2108,-5.2146,-5.2221,-5.2239,-5.2262,-5.2271,-5.2258,-5.2254,-5.228,-5.2277,-5.2292,-5.2292,-5.2291,-5.2291,0,-5.1384,-5.1439,-5.1525,-5.161,-5.1633,-5.1681,-5.1754,-5.1801,-5.1845,-5.1915,-5.1935,-5.2004,-5.2076,-5.213,-5.2224,-5.225,-5.2329,-5.2339,-5.2305,-5.2309,-5.2338,-5.2333,-5.2426,-5.244,-5.2392,-5.2392,-5.2392,0,-5.1416,-5.1464,-5.1555,-5.1595,-5.1637,-5.1702,-5.1747,-5.1801,-5.1847,-5.193,-5.1967,-5.2042,-5.2104,-5.2219,-5.2277,-5.2349,-5.236,-5.2388,-5.2371,-5.2356,-5.2358,-5.2354,-5.2358,-5.2389,-5.2389,-5.2389,-5.2389,0,-5.1466,-5.1492,-5.1555,-5.1629,-5.1682,-5.1743,-5.1804,-5.1835,-5.19,-5.195,-5.2025,-5.2073,-5.217,-5.2244,-5.2322,-5.2365,-5.2388,-5.2395,-5.2406,-5.2391,-5.2368,-5.2379,-5.2309,-5.2392,-5.2391,-5.2391,-5.2391,-5.2391,-5.1493,-5.1538,-5.1608,-5.1679,-5.1731,-5.1788,-5.1836,-5.1886,-5.195,-5.2032,-5.2061,-5.2137,-5.2207,-5.2315,-5.2359,-5.242,-5.242,-5.2436,-5.244,-5.2442,-5.244,-5.2361,-5.2435,-5.2435,-5.2435,-5.2435,-5.2435,0,-5.1544,-5.1592,-5.1656,-5.1741,-5.1796,-5.1814,-5.1883,-5.1928,-5.1995,-5.2059,-5.212,-5.2206,-5.2278,-5.2343,-5.2418,-5.2454,-5.2467,-5.2472,-5.2468,-5.2478,-5.2437,-5.2419,-5.2461,-5.2461,-5.2461,-5.2461,-5.2461,-5.2461,-5.1576,-5.1652,-5.1686,-5.1788,-5.1836,-5.1911,-5.1949,-5.2002,-5.2052,-5.2146,-5.2207,-5.2249,-5.2313,-5.2393,-5.246,-5.2478,-5.2503,-5.2505,-5.2525,-5.2484,-5.2481,-5.2478,-5.2461,-5.2511,-5.2511,-5.2561,-5.2561,-5.2561]},{"header":{"parameterUnit":"m.s-1","parameterCategory":1,"la1":30.2991,"la2":30.254,"lo1":-89.0895,"lo2":-89.0444,"dy":0.0017,"dx":0.0017,"nx":28,"ny":28,"refTime":"2025-04-05T09:00:00:Z","depth":0,"parameterNumber":3,"parameterNumberName":"V-component_of_WINDS"},"data":[0,0,0,0,0,0,0,0,0,0,0,0,0,0,0,0,0,0,0,0,0,0,0,0,0,0,0,0,0,0,0,0,0,0,0,0,0,0,0,0,0,0,0,0,0,0,0,0,0,0,0,0,0,0,0,0,0,0,6.0766,6.0768,0,6.095,6.0952,6.0954,6.1011,6.101,6.1009,6.1008,6.119,6.1196,6.1202,0,0,0,0,0,0,0,0,0,0,0,0,0,6.0457,6.0463,6.0765,6.0768,6.077,6.095,6.0952,6.0955,6.1011,6.101,6.1009,6.1008,6.1189,6.1195,6.1202,0,0,0,0,0,0,0,0,0,0,0,0,0,6.0611,6.0465,6.0765,6.082,6.0827,6.0949,6.0952,6.0955,6.1011,6.101,6.1009,6.1007,6.1186,6.1195,6.1203,6.1282,0,0,6.1229,6.1233,0,0,0,0,0,0,0,0,6.0602,6.0622,6.081,6.0817,6.0824,6.0956,6.091,6.1065,6.1012,6.0941,6.1008,6.1007,6.1113,6.1128,6.1165,6.129,6.1298,6.123,6.1235,6.1239,6.1241,0,0,0,0,0,0,0,6.0592,6.0615,6.0838,6.0812,6.0821,6.0834,6.0854,6.094,6.1032,6.0947,6.0952,6.0973,6.1117,6.1157,6.117,6.1301,6.123,6.1237,6.1242,6.1246,6.1502,6.1504,0,0,0,0,0,0,6.0573,6.0606,6.0832,6.0844,6.0708,6.0841,6.0863,6.0915,6.1031,6.1048,6.0974,6.0975,6.1143,6.116,6.1176,6.1278,6.1238,6.1246,6.1251,6.15,6.1503,6.1504,0,0,0,0,0,0,6.0566,6.0592,6.0825,6.0726,6.0757,6.0847,6.0905,6.0919,6.0959,6.1052,6.1068,6.0998,6.1142,6.1164,6.1256,6.1285,6.125,6.1258,6.1498,6.1501,6.1503,6.148,0,0,0,0,0,0,6.0557,6.0589,6.0621,6.0727,6.0762,6.0903,6.0907,6.0924,6.0975,6.0978,6.1079,6.1094,6.1143,6.1243,6.1265,6.1296,6.1265,6.1496,6.15,6.1503,6.1479,6.1482,6.1484,0,0,0,0,0,6.0545,6.0606,6.0623,6.065,6.0804,6.0905,6.0925,6.0982,6.0977,6.1009,6.1069,6.1091,6.1278,6.1252,6.1277,6.1311,6.1495,6.1499,6.1502,6.1478,6.1481,6.1484,0,0,0,0,0,0,6.0499,6.062,6.0641,6.0737,6.0811,6.0914,6.0957,6.0984,6.1058,6.1058,6.1123,6.1146,6.1233,6.1281,6.125,6.1394,6.1387,6.1396,6.136,6.1364,6.1367,6.1353,6.1272,0,0,0,0,0,6.05,6.0574,6.0675,6.075,6.0787,6.0865,6.0911,6.0949,6.1027,6.1058,6.1124,6.1197,6.1273,6.1321,6.1395,6.1486,6.1509,6.1522,6.1524,6.1526,6.1533,6.1586,6.1593,6.1517,6.1517,6.1517,0,0,6.0503,6.0578,6.062,6.0743,6.0805,6.0878,6.0891,6.0968,6.1023,6.1069,6.1161,6.1212,6.1297,6.139,6.1434,6.1432,6.156,6.1531,6.1532,6.1538,6.1591,6.1598,6.1604,6.152,6.1519,6.1519,0,0,6.0546,6.061,6.0681,6.0743,6.0837,6.089,6.0906,6.1007,6.1044,6.1138,6.1174,6.1239,6.1368,6.1428,6.1475,6.1543,6.1567,6.1565,6.1579,6.163,6.1636,6.1642,6.1667,6.1676,6.1572,6.1572,6.1572,0,6.0537,6.0652,6.0713,6.079,6.0843,6.0891,6.0963,6.1019,6.1131,6.1166,6.1163,6.1328,6.1388,6.1496,6.1513,6.1549,6.157,6.1554,6.1631,6.1637,6.1643,6.1668,6.1677,6.1571,6.1571,6.1571,6.1572,0,6.0637,6.0715,6.0761,6.0872,6.0929,6.1003,6.1075,6.1126,6.1159,6.1211,6.1306,6.1381,6.1473,6.1501,6.1532,6.1613,6.161,6.1618,6.1613,6.1649,6.1674,6.1683,6.157,6.1571,6.1571,6.1571,0,0,6.0655,6.0801,6.0817,6.0868,6.0976,6.1037,6.1112,6.1205,6.1248,6.1323,6.1388,6.1497,6.1506,6.156,6.1598,6.1643,6.1694,6.1646,6.1649,6.1653,6.1789,6.1783,6.1793,6.171,6.1712,6.1713,6.1782,0,6.0713,6.0853,6.0911,6.1023,6.1097,6.1144,6.1209,6.1282,6.1333,6.1401,6.1456,6.1533,6.1539,6.1572,6.1618,6.1678,6.1722,6.1673,6.177,6.1773,6.1748,6.1806,6.1799,6.1861,6.1792,6.1794,6.1795,0,6.0799,6.0879,6.0999,6.11,6.1133,6.1191,6.1281,6.1347,6.1429,6.1463,6.1524,6.1562,6.1642,6.163,6.1741,6.1707,6.175,6.1785,6.1789,6.1801,6.1786,6.182,6.1881,6.1891,6.181,6.1809,6.1808,0,6.0802,6.0939,6.103,6.1072,6.1191,6.1231,6.1282,6.1365,6.1417,6.1494,6.1529,6.1614,6.166,6.1724,6.1783,6.177,6.1889,6.1882,6.1919,6.1918,6.1942,6.194,6.2013,6.1968,6.1968,6.1968,6.1968,0,6.0862,6.0933,6.1033,6.1088,6.117,6.1236,6.1315,6.1369,6.1442,6.1508,6.1552,6.1612,6.1686,6.1756,6.1802,6.1887,6.1907,6.1936,6.1948,6.1933,6.193,6.1963,6.196,6.197,6.197,6.1969,6.1969,0,6.0879,6.0949,6.1051,6.1156,6.1184,6.124,6.133,6.1385,6.1438,6.1521,6.1544,6.1627,6.1712,6.1777,6.1886,6.1917,6.2008,6.2019,6.198,6.1987,6.202,6.2017,6.2117,6.2134,6.2077,6.2077,6.2078,0,6.0913,6.097,6.1083,6.1132,6.1183,6.126,6.1315,6.1382,6.1436,6.1536,6.1579,6.1667,6.1742,6.1874,6.1943,6.2026,6.2041,6.2071,6.2054,6.2038,6.2043,6.204,6.2046,6.2073,6.2073,6.2073,6.2074,0,6.0966,6.0999,6.1077,6.1167,6.1231,6.1305,6.1379,6.1416,6.1496,6.1555,6.1644,6.1701,6.1814,6.1901,6.1992,6.2043,6.2072,6.2078,6.2092,6.2078,6.2053,6.2068,6.1987,6.2076,6.2076,6.2075,6.2075,6.2075,6.0995,6.1048,6.1137,6.1222,6.1286,6.1355,6.1412,6.1474,6.155,6.1649,6.1683,6.1774,6.1856,6.1982,6.2034,6.2105,6.2106,6.2125,6.213,6.2134,6.2133,6.2041,6.2122,6.2122,6.2122,6.2122,6.2122,0,6.1051,6.1111,6.1189,6.1294,6.1361,6.1384,6.1468,6.1522,6.1603,6.1678,6.1751,6.1853,6.1938,6.2014,6.2103,6.2145,6.2161,6.2166,6.2164,6.2175,6.2126,6.2107,6.2152,6.2152,6.2152,6.2152,6.2152,6.2152,6.1089,6.1181,6.1224,6.1348,6.1407,6.1499,6.1545,6.1609,6.167,6.1782,6.1854,6.1904,6.198,6.2074,6.2153,6.2173,6.2204,6.2206,6.223,6.2182,6.2179,6.2175,6.2157,6.2212,6.2212,6.2273,6.2274,6.2274]}]]